Total_Precipitation_Accumulation
0.00 0.00 0.00 0.00 0.00 0.00 0.00 0.00 0.00 0.00 0.00 0.00 0.00 0.00 0.00 0.00 0.00 0.00 0.00 0.00 0.00 0.01 0.03 0.05 0.07 0.09 0.11 0.11 0.12 0.13 0.15 0.21 0.20 0.07 0.05 0.06 0.07 0.05 0.04 0.09 0.09 0.09 0.09
0.00 0.00 0.00 0.00 0.00 0.00 0.00 0.00 0.00 0.00 0.00 0.00 0.00 0.00 0.00 0.00 0.00 0.00 0.00 0.00 0.00 0.00 0.01 0.02 0.04 0.06 0.08 0.11 0.13 0.13 0.13 0.16 0.23 0.17 0.06 0.05 0.06 0.07 0.08 0.10 0.12 0.14 0.13
0.00 0.00 0.00 0.00 0.00 0.00 0.00 0.00 0.00 0.00 0.00 0.00 0.00 0.00 0.00 0.00 0.00 0.00 0.00 0.00 0.00 0.00 0.01 0.01 0.01 0.02 0.02 0.05 0.08 0.11 0.13 0.17 0.26 0.30 0.16 0.12 0.12 0.11 0.13 0.11 0.13 0.16 0.15
0.00 0.00 0.00 0.00 0.00 0.00 0.00 0.00 0.00 0.00 0.00 0.00 0.00 0.00 0.00 0.00 0.00 0.00 0.00 0.00 0.00 0.00 0.00 0.01 0.01 0.01 0.02 0.03 0.06 0.10 0.17 0.21 0.25 0.31 0.28 0.20 0.18 0.14 0.16 0.15 0.16 0.15 0.17
0.00 0.00 0.00 0.00 0.00 0.00 0.00 0.00 0.00 0.00 0.00 0.00 0.00 0.00 0.00 0.00 0.00 0.00 0.00 0.00 0.00 0.00 0.00 0.00 0.00 0.00 0.01 0.04 0.09 0.13 0.17 0.23 0.31 0.39 0.37 0.29 0.23 0.20 0.19 0.20 0.25 0.24 0.23
0.00 0.00 0.00 0.00 0.00 0.00 0.00 0.00 0.00 0.00 0.00 0.00 0.00 0.00 0.00 0.00 0.00 0.00 0.00 0.00 0.00 0.00 0.00 0.00 0.00 0.00 0.01 0.05 0.08 0.12 0.21 0.30 0.39 0.45 0.43 0.36 0.27 0.27 0.31 0.38 0.45 0.49 0.42
0.00 0.00 0.00 0.00 0.00 0.00 0.00 0.00 0.00 0.00 0.00 0.00 0.00 0.00 0.00 0.00 0.00 0.00 0.00 0.00 0.00 0.00 0.00 0.00 0.00 0.01 0.03 0.04 0.05 0.10 0.15 0.23 0.32 0.35 0.31 0.24 0.22 0.24 0.37 0.46 0.50 0.54 0.49
0.00 0.00 0.00 0.00 0.00 0.00 0.00 0.00 0.00 0.00 0.00 0.00 0.00 0.00 0.00 0.00 0.00 0.00 0.00 0.00 0.00 0.00 0.00 0.00 0.01 0.02 0.03 0.07 0.13 0.17 0.12 0.09 0.10 0.12 0.13 0.14 0.18 0.24 0.36 0.50 0.58 0.62 0.52
0.00 0.00 0.00 0.00 0.00 0.00 0.00 0.00 0.00 0.00 0.00 0.00 0.00 0.00 0.00 0.00 0.00 0.00 0.00 0.00 0.00 0.00 0.00 0.01 0.03 0.03 0.05 0.16 0.24 0.24 0.13 0.04 0.04 0.07 0.12 0.13 0.15 0.18 0.26 0.47 0.66 0.74 0.61
0.00 0.00 0.00 0.00 0.00 0.00 0.00 0.00 0.00 0.00 0.00 0.00 0.00 0.00 0.00 0.00 0.00 0.00 0.01 0.01 0.01 0.02 0.02 0.01 0.02 0.04 0.11 0.22 0.23 0.20 0.11 0.05 0.08 0.07 0.06 0.05 0.04 0.06 0.16 0.36 0.74 1.04 0.81
0.00 0.00 0.00 0.00 0.00 0.00 0.00 0.00 0.00 0.00 0.00 0.00 0.00 0.00 0.00 0.00 0.00 0.00 0.01 0.03 0.05 0.07 0.06 0.03 0.02 0.08 0.18 0.20 0.15 0.08 0.09 0.17 0.14 0.06 0.05 0.04 0.04 0.04 0.08 0.16 0.42 0.96 1.17
0.00 0.00 0.00 0.00 0.00 0.00 0.00 0.00 0.00 0.00 0.00 0.00 0.00 0.00 0.00 0.00 0.00 0.00 0.02 0.06 0.11 0.11 0.08 0.05 0.06 0.14 0.14 0.09 0.05 0.05 0.12 0.12 0.05 0.05 0.06 0.06 0.08 0.11 0.15 0.21 0.27 0.43 0.73
0.00 0.00 0.00 0.00 0.00 0.00 0.00 0.00 0.00 0.00 0.00 0.00 0.00 0.00 0.00 0.00 0.00 0.00 0.03 0.08 0.12 0.11 0.09 0.11 0.13 0.10 0.05 0.02 0.03 0.05 0.06 0.05 0.09 0.16 0.15 0.13 0.15 0.22 0.28 0.31 0.31 0.34 0.41
0.00 0.00 0.00 0.00 0.00 0.00 0.00 0.00 0.00 0.00 0.00 0.00 0.00 0.00 0.00 0.00 0.00 0.01 0.05 0.07 0.09 0.10 0.12 0.12 0.07 0.03 0.02 0.02 0.02 0.02 0.03 0.07 0.19 0.26 0.22 0.17 0.18 0.25 0.31 0.40 0.50 0.51 0.55
0.00 0.00 0.00 0.00 0.00 0.00 0.00 0.00 0.00 0.00 0.00 0.00 0.01 0.01 0.02 0.02 0.03 0.09 0.13 0.11 0.14 0.14 0.13 0.05 0.01 0.01 0.02 0.02 0.01 0.01 0.02 0.06 0.13 0.17 0.22 0.24 0.24 0.32 0.42 0.54 0.67 0.72 0.73
0.00 0.00 0.00 0.00 0.00 0.00 0.00 0.00 0.00 0.00 0.00 0.00 0.01 0.02 0.02 0.04 0.07 0.09 0.11 0.15 0.16 0.12 0.07 0.02 0.02 0.03 0.04 0.04 0.04 0.05 0.04 0.08 0.17 0.25 0.28 0.31 0.37 0.45 0.55 0.64 0.76 0.81 0.75
0.00 0.00 0.00 0.00 0.00 0.00 0.00 0.00 0.00 0.00 0.00 0.00 0.00 0.01 0.02 0.04 0.05 0.07 0.11 0.13 0.07 0.04 0.03 0.04 0.04 0.04 0.05 0.06 0.08 0.11 0.12 0.13 0.25 0.37 0.44 0.47 0.52 0.57 0.65 0.73 0.75 0.71 0.59
0.00 0.00 0.00 0.00 0.00 0.00 0.00 0.00 0.00 0.00 0.00 0.00 0.00 0.00 0.02 0.03 0.04 0.06 0.09 0.06 0.01 0.02 0.04 0.06 0.06 0.05 0.06 0.09 0.13 0.19 0.23 0.24 0.32 0.44 0.51 0.56 0.60 0.66 0.73 0.72 0.66 0.58 0.48
0.00 0.00 0.00 0.00 0.00 0.00 0.00 0.00 0.00 0.00 0.01 0.00 0.00 0.00 0.00 0.01 0.03 0.04 0.04 0.01 0.03 0.05 0.05 0.05 0.04 0.06 0.09 0.12 0.15 0.22 0.31 0.41 0.48 0.59 0.62 0.64 0.67 0.74 0.73 0.64 0.50 0.37 0.27
0.00 0.00 0.00 0.00 0.00 0.00 0.00 0.00 0.00 0.01 0.01 0.01 0.01 0.00 0.00 0.02 0.03 0.01 0.01 0.01 0.04 0.05 0.05 0.05 0.05 0.06 0.10 0.15 0.19 0.27 0.37 0.43 0.51 0.59 0.63 0.64 0.66 0.68 0.61 0.44 0.28 0.19 0.14
0.00 0.00 0.00 0.00 0.00 0.00 0.00 0.01 0.01 0.02 0.02 0.02 0.01 0.01 0.04 0.05 0.03 0.01 0.01 0.02 0.03 0.05 0.06 0.07 0.07 0.08 0.12 0.17 0.23 0.29 0.40 0.47 0.54 0.62 0.64 0.60 0.55 0.45 0.30 0.19 0.14 0.13 0.12
0.00 0.00 0.00 0.00 0.00 0.00 0.01 0.01 0.02 0.02 0.02 0.02 0.01 0.01 0.02 0.02 0.01 0.02 0.02 0.02 0.02 0.03 0.04 0.08 0.09 0.10 0.19 0.33 0.46 0.51 0.48 0.48 0.52 0.58 0.55 0.44 0.34 0.22 0.14 0.12 0.11 0.10 0.10
0.00 0.00 0.00 0.00 0.01 0.01 0.01 0.01 0.01 0.01 0.02 0.02 0.02 0.02 0.01 0.01 0.02 0.02 0.02 0.01 0.02 0.02 0.03 0.07 0.11 0.11 0.16 0.32 0.51 0.74 0.80 0.69 0.62 0.61 0.52 0.37 0.23 0.17 0.16 0.14 0.11 0.09 0.08
0.00 0.00 0.01 0.01 0.01 0.01 0.01 0.01 0.01 0.01 0.02 0.02 0.01 0.02 0.02 0.02 0.02 0.02 0.01 0.01 0.02 0.02 0.03 0.07 0.12 0.15 0.20 0.34 0.50 0.64 0.74 0.79 0.82 0.71 0.56 0.44 0.27 0.19 0.15 0.12 0.09 0.07 0.06
0.00 0.01 0.01 0.01 0.01 0.01 0.01 0.01 0.01 0.01 0.01 0.02 0.02 0.02 0.03 0.03 0.02 0.02 0.02 0.02 0.02 0.02 0.02 0.06 0.13 0.20 0.27 0.38 0.51 0.61 0.65 0.69 0.66 0.50 0.32 0.22 0.17 0.14 0.13 0.10 0.07 0.05 0.04
0.00 0.00 0.00 0.00 0.00 0.00 0.00 0.01 0.01 0.02 0.02 0.03 0.03 0.03 0.04 0.04 0.03 0.03 0.02 0.03 0.04 0.04 0.03 0.04 0.09 0.18 0.28 0.39 0.46 0.56 0.61 0.54 0.32 0.15 0.10 0.09 0.10 0.09 0.08 0.06 0.05 0.04 0.03